Probability
16 48 71 68 68 68 68 71 74 68 65 68 71 71 65 65 65 65 71 65 71 77 71 77 81 71 68 68 65 68 68 71 71 68 61 65 71 74 74 77 58 58 74
19 52 71 71 71 71 68 65 74 77 71 71 77 77 71 74 68 68 71 84 84 77 74 71 77 74 68 74 71 68 71 74 81 71 68 55 71 81 84 65 52 48 65
32 52 71 77 81 74 71 74 74 77 74 81 81 77 71 74 74 74 77 77 77 77 74 71 68 58 61 58 68 68 65 65 71 58 48 26 48 77 74 61 55 55 52
26 39 74 77 77 74 81 84 81 87 77 81 87 84 84 74 74 81 81 77 71 71 71 58 65 55 52 52 55 48 55 48 52 39 16 19 19 71 71 58 55 55 48
29 42 74 77 77 77 77 81 77 84 84 81 84 81 77 77 74 77 71 71 74 65 52 48 52 42 48 45 45 45 48 48 48 19 10 6 13 61 61 58 55 45 45
29 52 81 81 81 81 81 84 77 90 81 81 81 77 77 74 65 65 65 65 65 61 45 39 45 39 39 39 42 45 48 45 13 6 3 0 13 65 55 55 48 42 45
35 61 74 84 84 87 84 87 87 87 84 77 74 74 71 71 71 65 71 74 65 61 52 45 48 48 39 45 48 52 61 32 10 6 3 0 13 68 55 52 55 42 39
39 55 74 87 87 87 87 87 87 90 77 77 74 77 71 65 65 65 65 68 74 58 52 45 45 35 45 48 48 52 58 32 13 6 3 3 45 71 58 48 42 35 39
39 52 65 74 81 84 84 84 84 81 84 81 74 74 71 68 61 65 68 58 58 48 45 42 35 42 42 52 48 58 61 48 10 3 3 6 58 65 52 45 45 39 19
29 42 35 48 58 61 77 81 84 81 77 81 90 90 81 71 58 61 65 52 55 48 42 42 39 55 52 58 55 65 55 35 6 3 3 16 68 55 52 55 45 32 19
23 26 29 32 29 42 58 74 77 74 77 71 71 74 68 26 19 45 45 52 61 55 45 55 55 61 65 58 65 71 42 13 3 3 6 29 55 58 48 39 39 29 19
10 13 16 19 16 19 35 42 42 45 42 39 29 42 19 6 6 26 39 61 58 55 48 52 65 58 42 3 10 29 10 3 3 3 6 52 58 55 48 32 29 23 26
10 13 13 19 16 13 26 26 32 23 26 19 19 19 10 6 6 10 6 29 26 26 16 23 26 23 3 3 3 3 3 3 3 3 16 52 65 61 45 39 29 26 19
19 19 26 26 16 13 26 26 39 16 19 26 13 16 10 3 3 3 6 10 10 10 3 3 3 3 3 0 0 3 3 3 3 3 10 61 58 58 48 45 35 29 19
16 16 19 26 13 19 19 26 26 19 19 19 19 19 13 16 3 6 10 3 3 6 3 3 3 3 6 6 3 3 3 6 3 3 10 48 52 55 52 45 35 29 32
10 13 13 19 23 23 23 23 29 23 19 19 29 23 23 16 6 10 10 0 0 3 3 3 0 3 6 6 6 3 3 3 3 6 3 16 48 55 52 45 48 39 35
13 16 23 26 23 23 26 23 26 23 23 26 19 26 26 19 10 16 10 3 6 6 0 0 3 3 3 3 3 3 0 3 6 6 3 3 13 42 42 42 42 45 45
19 19 23 32 19 19 19 26 26 35 23 23 13 23 23 16 16 10 6 6 3 6 6 3 6 6 3 3 3 3 0 0 6 6 3 0 0 3 19 42 39 35 35
19 23 26 29 26 26 29 32 32 26 29 23 19 23 19 13 10 10 10 6 3 10 3 6 6 3 3 3 3 0 0 0 0 0 0 0 0 0 0 10 39 32 29
16 23 26 35 35 35 35 35 29 26 26 29 19 23 26 23 16 13 13 10 3 3 3 3 10 3 3 3 6 6 0 0 3 3 3 3 3 3 0 3 10 13 26
23 29 32 26 35 32 29 35 29 23 26 26 19 16 23 26 32 23 19 10 10 13 10 10 6 0 3 3 3 3 3 0 3 3 0 0 3 3 0 0 0 0 0
23 23 26 29 39 35 35 35 32 32 29 32 19 23 29 29 29 26 16 16 13 10 10 6 6 0 0 3 3 0 0 0 0 3 0 0 0 0 0 0 0 0 0
29 29 39 39 35 39 42 39 35 35 29 26 23 23 19 32 26 19 19 16 13 13 10 10 10 3 0 3 3 0 0 0 0 0 0 0 0 0 0 0 0 0 0
35 42 45 35 35 45 39 39 39 32 29 26 19 23 23 23 26 19 16 23 13 16 10 10 13 6 0 6 6 3 0 0 3 3 0 0 0 0 0 0 0 0 0
35 42 42 39 48 35 39 45 39 39 32 26 16 26 19 19 23 32 26 16 19 23 19 16 16 16 13 13 13 10 10 3 0 0 0 0 0 0 0 0 0 0 0
39 48 45 48 52 42 42 45 45 42 35 23 16 23 16 16 19 32 29 26 29 32 23 16 19 16 10 10 10 13 10 10 6 0 0 0 0 0 0 0 0 0 0
Height
5880 5879 5878 5878 5877 5877 5877 5877 5877 5877 5877 5877 5877 5878 5878 5879 5879 5880 5880 5881 5881 5882 5882 5883 5883 5884 5885 5885 5886 5887 5887 5888 5888 5888 5888 5889 5889 5889 5889 5889 5889 5889 5890
5881 5880 5880 5878 5878 5878 5878 5878 5878 5878 5878 5879 5879 5879 5880 5880 5881 5881 5882 5882 5883 5884 5884 5885 5885 5886 5886 5887 5887 5888 5888 5889 5889 5889 5890 5890 5890 5890 5890 5890 5890 5890 5890
5882 5882 5881 5880 5880 5880 5880 5880 5880 5880 5880 5880 5880 5881 5881 5882 5883 5883 5883 5884 5885 5885 5886 5886 5887 5888 5888 5888 5889 5889 5889 5890 5890 5890 5890 5890 5891 5891 5891 5891 5891 5891 5891
5883 5883 5883 5882 5882 5881 5881 5881 5881 5881 5882 5882 5882 5883 5883 5884 5885 5885 5885 5886 5887 5887 5888 5888 5889 5889 5890 5890 5890 5890 5890 5891 5891 5891 5891 5892 5892 5891 5891 5891 5891 5891 5891
5885 5885 5884 5884 5884 5883 5883 5883 5883 5883 5884 5884 5884 5884 5885 5885 5886 5886 5887 5888 5888 5889 5889 5890 5891 5891 5891 5891 5891 5891 5892 5892 5892 5892 5892 5892 5892 5892 5892 5892 5892 5892 5892
5886 5886 5886 5885 5885 5885 5885 5885 5885 5885 5886 5886 5886 5886 5886 5887 5887 5888 5889 5889 5890 5890 5891 5892 5892 5892 5893 5893 5893 5893 5893 5893 5893 5893 5893 5893 5893 5893 5893 5892 5892 5892 5892
5888 5887 5887 5887 5887 5887 5887 5887 5888 5888 5888 5888 5888 5889 5889 5889 5889 5890 5890 5890 5891 5892 5892 5893 5893 5894 5894 5894 5894 5894 5894 5894 5894 5894 5894 5894 5894 5893 5893 5893 5893 5892 5892
5889 5889 5889 5889 5889 5889 5889 5889 5890 5890 5890 5890 5890 5890 5891 5891 5891 5891 5892 5892 5893 5893 5894 5894 5894 5895 5895 5895 5895 5895 5895 5895 5895 5895 5895 5894 5894 5894 5894 5893 5893 5892 5892
5891 5891 5890 5891 5891 5891 5891 5891 5892 5892 5892 5892 5892 5892 5893 5893 5893 5893 5893 5894 5894 5895 5895 5895 5895 5895 5895 5896 5896 5896 5896 5896 5896 5895 5895 5895 5895 5894 5894 5893 5893 5892 5892
5893 5893 5892 5893 5893 5893 5893 5893 5893 5894 5894 5894 5894 5894 5894 5894 5894 5894 5894 5895 5895 5896 5896 5896 5896 5896 5896 5896 5896 5896 5897 5897 5896 5896 5896 5895 5895 5894 5894 5893 5893 5892 5892
5895 5895 5895 5895 5895 5895 5895 5895 5895 5896 5896 5896 5896 5896 5896 5896 5896 5896 5895 5896 5897 5897 5897 5897 5897 5897 5897 5897 5897 5897 5897 5897 5897 5896 5896 5895 5895 5894 5894 5893 5893 5892 5892
5898 5897 5897 5897 5897 5897 5897 5897 5897 5897 5897 5897 5897 5897 5897 5897 5897 5897 5897 5897 5898 5898 5898 5898 5898 5898 5898 5898 5897 5898 5897 5897 5897 5896 5896 5895 5895 5894 5894 5893 5893 5892 5892
5900 5900 5899 5899 5899 5899 5899 5899 5899 5899 5899 5899 5899 5899 5899 5899 5899 5899 5899 5899 5898 5898 5898 5898 5899 5898 5898 5898 5898 5898 5897 5897 5897 5896 5896 5895 5894 5894 5893 5893 5893 5892 5891
5903 5902 5902 5901 5901 5901 5901 5901 5901 5901 5901 5901 5900 5900 5900 5900 5900 5900 5900 5899 5899 5899 5898 5899 5899 5899 5898 5898 5898 5897 5897 5897 5896 5896 5896 5895 5894 5894 5893 5893 5892 5892 5891
5906 5905 5904 5904 5903 5903 5903 5903 5902 5902 5902 5902 5902 5901 5901 5901 5901 5900 5900 5900 5900 5899 5898 5899 5898 5898 5898 5898 5897 5897 5897 5897 5896 5896 5895 5895 5894 5893 5893 5892 5891 5891 5890
5908 5907 5907 5906 5905 5905 5904 5904 5904 5904 5904 5903 5903 5903 5902 5902 5901 5901 5901 5901 5900 5899 5899 5899 5898 5898 5898 5898 5897 5896 5896 5896 5896 5895 5895 5894 5893 5893 5892 5891 5890 5890 5889
5910 5910 5909 5908 5907 5907 5906 5906 5906 5905 5905 5904 5904 5904 5903 5902 5902 5902 5901 5901 5900 5900 5899 5899 5898 5898 5898 5897 5897 5896 5896 5895 5895 5894 5894 5893 5892 5892 5891 5890 5889 5888 5887
5913 5912 5911 5910 5909 5909 5908 5907 5907 5906 5906 5905 5905 5904 5904 5903 5902 5902 5902 5901 5901 5900 5899 5898 5898 5897 5897 5897 5896 5896 5895 5895 5894 5894 5893 5892 5891 5890 5889 5888 5888 5887 5886
5916 5914 5913 5912 5911 5910 5910 5909 5908 5907 5907 5906 5905 5905 5904 5903 5903 5902 5901 5901 5900 5899 5899 5898 5897 5896 5896 5895 5895 5895 5895 5894 5893 5892 5891 5891 5890 5889 5888 5886 5886 5884 5883
5918 5917 5915 5914 5913 5912 5911 5910 5909 5908 5908 5907 5906 5905 5904 5904 5903 5902 5901 5900 5899 5899 5898 5897 5896 5896 5895 5895 5894 5894 5893 5893 5892 5891 5890 5889 5888 5887 5885 5884 5883 5882 5881
5921 5919 5918 5916 5915 5914 5913 5911 5910 5909 5908 5908 5907 5906 5905 5904 5903 5901 5901 5900 5899 5898 5897 5896 5896 5894 5894 5893 5893 5892 5891 5891 5890 5889 5888 5887 5886 5884 5883 5881 5881 5879 5878
5923 5922 5920 5919 5917 5916 5914 5913 5911 5910 5909 5908 5907 5905 5904 5904 5903 5901 5900 5899 5898 5897 5896 5895 5894 5893 5892 5892 5891 5890 5889 5889 5887 5887 5885 5884 5883 5882 5880 5879 5878 5876 5875
5926 5924 5922 5921 5919 5917 5916 5914 5913 5911 5910 5909 5907 5906 5905 5903 5902 5900 5899 5898 5897 5896 5895 5894 5893 5892 5891 5890 5889 5889 5887 5886 5885 5884 5883 5881 5880 5879 5877 5876 5874 5873 5871
5927 5926 5924 5922 5921 5919 5917 5916 5914 5913 5911 5909 5908 5906 5904 5903 5901 5900 5898 5897 5896 5894 5893 5892 5891 5890 5889 5888 5887 5886 5885 5884 5882 5881 5880 5879 5877 5876 5874 5872 5871 5869 5868
5929 5927 5926 5924 5922 5920 5919 5917 5915 5913 5912 5910 5908 5906 5904 5902 5900 5899 5897 5895 5894 5893 5891 5890 5889 5888 5887 5886 5884 5883 5882 5880 5879 5878 5877 5876 5874 5872 5870 5869 5867 5865 5864
5930 5928 5927 5925 5923 5921 5920 5918 5916 5914 5912 5910 5908 5906 5904 5902 5899 5898 5896 5894 5893 5891 5890 5888 5887 5886 5884 5883 5882 5880 5879 5877 5876 5874 5873 5872 5870 5868 5867 5865 5863 5862 5860
Wind_Speed
8 8 7 7 7 7 7 7 7 7 7 7 8 9 10 11 11 11 11 13 13 13 13 12 12 12 11 11 11 10 10 9 8 8 8 8 7 7 7 7 7 7 6
8 8 8 8 8 8 8 8 8 8 8 8 9 9 10 11 11 11 12 13 13 13 13 13 12 12 12 11 11 11 10 10 9 8 8 7 7 7 7 7 7 7 6
9 9 8 9 9 8 8 8 8 9 9 9 9 10 10 11 12 12 12 13 13 13 12 12 12 12 11 11 11 11 10 10 9 8 8 8 7 6 6 6 7 6 6
9 8 8 9 9 8 8 9 9 9 9 9 10 11 11 11 12 12 12 12 12 12 12 12 11 11 11 10 10 10 10 10 9 8 8 7 7 7 6 6 6 6 5
8 8 8 8 9 9 9 9 9 9 9 10 11 11 11 11 11 12 12 12 12 12 12 11 11 10 10 10 10 10 9 9 8 8 8 7 7 7 6 6 5 5 4
9 9 9 8 10 10 10 10 10 9 10 10 11 11 10 11 11 11 12 12 11 11 11 11 10 10 10 10 10 9 9 8 7 7 7 6 6 6 5 5 4 4 3
10 9 9 10 11 11 10 10 10 9 9 10 10 10 10 10 10 11 11 11 10 10 10 10 9 9 9 9 9 9 8 8 7 6 6 6 5 5 4 3 3 3 2
10 10 10 11 11 11 11 10 10 10 10 10 10 10 10 9 9 9 10 10 9 9 9 9 9 9 9 8 8 8 7 7 6 6 5 5 4 4 3 3 3 2 2
11 11 11 11 11 11 11 11 11 10 10 9 10 10 9 9 8 9 8 8 8 8 7 8 8 8 7 7 7 7 7 6 6 5 5 4 3 3 3 3 2 3 2
12 11 12 11 11 11 11 11 10 10 10 10 10 10 9 8 8 8 8 8 7 7 6 6 6 6 6 6 6 5 5 5 4 4 3 3 4 4 3 2 2 2 2
13 12 12 12 11 11 10 11 10 10 10 9 9 8 8 8 7 7 7 7 6 6 5 5 5 5 5 5 4 4 4 3 3 3 2 3 3 3 3 2 2 2 1
14 13 12 12 11 11 10 10 10 10 9 9 8 7 7 7 7 6 6 6 5 5 4 4 4 4 4 4 3 3 2 1 1 1 1 2 1 1 1 1 1 0 1
15 14 13 12 12 11 10 10 10 10 9 9 8 7 7 6 6 6 5 5 4 4 3 2 2 3 3 3 2 1 1 0 0 0 0 0 0 1 0 0 1 1 1
16 14 13 12 12 11 10 10 9 9 8 8 7 7 7 6 5 5 5 4 3 3 2 2 1 1 1 1 1 2 1 2 2 2 2 1 1 1 1 2 3 2 2
16 15 14 12 11 10 10 9 9 8 8 7 7 6 6 5 5 5 3 3 2 2 2 1 1 1 1 1 2 3 2 2 3 2 2 2 2 3 3 4 5 5 4
16 15 14 13 12 10 9 9 8 7 6 7 6 5 5 4 4 4 3 3 2 1 2 2 1 1 0 1 2 2 2 3 2 3 3 3 3 4 5 5 5 5 6
17 16 15 14 13 12 10 9 8 7 6 6 6 5 4 3 3 3 3 2 2 1 0 1 1 1 1 1 2 2 3 3 3 3 4 4 5 6 6 6 6 7 7
17 16 15 14 13 12 11 9 8 7 6 6 6 5 4 3 3 3 2 2 2 1 2 1 1 1 2 2 3 3 3 3 4 4 5 5 6 7 7 8 8 8 9
17 16 15 14 13 12 11 9 9 8 7 6 6 5 4 3 3 3 2 2 2 2 2 2 2 2 3 3 3 4 4 5 5 6 6 6 7 8 9 9 9 10 10
16 16 15 14 13 13 12 10 9 8 7 6 6 5 4 3 3 3 2 2 3 3 2 3 3 3 4 4 5 5 6 6 7 7 8 9 10 10 10 10 10 11 12
16 16 15 15 15 14 13 12 10 9 7 7 6 5 4 4 4 3 3 3 3 3 3 4 5 5 5 5 6 6 7 7 8 9 10 10 11 11 11 12 12 13 13
17 16 16 15 15 14 13 12 11 10 9 8 7 6 5 5 4 4 4 4 4 4 4 5 5 6 6 6 7 7 8 9 10 10 11 11 12 12 12 13 14 14 14
16 15 15 15 15 14 13 13 12 11 10 9 8 8 7 7 6 5 5 5 5 5 5 6 6 6 7 8 9 9 10 10 11 11 11 12 12 13 14 13 14 14 14
15 15 15 15 15 14 13 13 12 11 10 9 8 8 8 8 7 7 6 6 6 6 6 6 7 7 8 9 10 10 11 11 12 11 11 12 12 13 14 15 14 14 14
13 14 14 14 14 14 13 12 12 11 11 11 10 10 9 9 8 8 7 7 7 7 7 8 8 9 9 10 11 12 12 12 12 12 12 13 13 14 15 15 15 15 15
12 12 13 13 13 13 13 12 11 12 12 11 11 11 10 10 9 8 8 8 8 8 8 9 10 10 11 12 12 12 13 13 13 13 13 13 14 15 15 15 14 15 15
Wind_Direction
71 72 68 72 71 80 88 95 100 111 113 112 116 119 121 120 118 116 115 113 115 116 116 116 118 118 121 125 125 123 121 121 120 117 119 117 114 109 107 107 108 108 105
70 75 78 79 79 82 91 98 104 112 116 114 114 118 120 120 118 114 113 112 115 116 114 113 115 117 118 121 122 123 120 119 118 117 118 118 114 112 110 109 106 106 103
72 77 81 86 87 84 90 98 101 109 112 113 118 117 118 119 119 117 114 114 116 116 115 113 115 116 118 118 118 118 118 119 118 115 112 112 114 112 110 111 107 105 103
72 73 74 84 91 91 88 91 98 108 109 113 117 116 116 115 115 116 117 117 118 119 118 117 118 117 119 118 115 113 113 113 112 111 109 110 112 109 107 107 106 101 101
73 74 76 78 87 89 87 88 94 99 107 110 110 111 112 114 119 122 122 122 121 120 120 120 119 117 117 116 113 112 111 108 106 106 108 110 108 106 102 101 102 101 104
76 78 83 81 85 89 88 92 93 98 105 108 109 110 112 114 119 123 127 126 124 122 123 123 122 119 117 115 113 112 111 108 105 103 105 108 110 108 104 98 94 97 102
77 79 86 87 86 88 90 93 96 101 107 108 110 111 111 114 120 122 126 126 125 125 126 126 125 121 118 116 114 112 112 112 109 105 104 101 108 113 108 101 94 91 106
77 82 90 88 89 90 89 93 94 99 105 107 107 110 111 114 119 124 126 126 126 127 128 128 127 124 122 120 116 114 112 115 111 109 100 98 103 112 111 105 99 91 115
77 81 90 89 89 91 93 92 93 95 100 103 107 109 110 113 118 119 123 128 128 126 128 129 129 129 127 124 122 118 113 112 101 98 94 91 101 110 109 104 101 90 97
76 78 86 92 89 91 97 95 93 95 96 99 105 106 106 105 109 114 120 124 126 126 125 130 132 132 130 128 130 127 120 115 103 94 92 89 94 97 98 94 85 71 63
74 77 82 89 93 93 96 95 93 97 97 98 103 102 105 104 102 107 113 119 120 125 130 135 136 135 133 134 136 135 128 121 101 98 88 89 90 89 82 68 63 63 57
76 78 82 84 90 90 92 95 93 93 94 97 100 101 109 106 100 103 109 116 119 120 122 130 135 140 141 140 138 139 140 124 122 116 100 95 89 91 80 57 62 41 13
75 77 80 81 84 86 87 91 90 89 88 88 90 91 99 102 102 102 107 113 117 124 121 116 128 152 142 144 147 152 184 250 334 336 357 8 134 160 182 258 268 290 310
72 74 77 81 82 81 85 88 88 87 85 81 80 86 91 91 98 99 104 105 113 124 124 119 110 133 174 191 203 215 245 268 284 288 271 273 265 271 264 271 291 297 297
71 71 73 75 79 81 80 84 86 83 80 77 75 79 80 82 90 98 96 106 125 135 134 143 128 96 81 264 256 245 246 269 287 284 279 275 288 290 286 293 291 284 287
66 68 70 71 75 77 74 75 79 82 82 77 83 82 83 84 88 94 88 85 85 132 164 170 179 117 21 309 295 283 266 268 280 287 281 288 290 293 289 286 289 286 284
62 65 66 68 70 72 73 74 75 75 73 74 76 81 85 84 75 80 85 81 83 130 157 289 280 250 293 316 311 303 289 276 278 278 283 290 287 288 287 288 292 287 284
61 62 62 62 65 68 71 71 69 68 69 67 66 71 73 72 67 74 74 64 58 25 348 329 317 303 287 293 300 301 304 289 280 283 286 290 290 287 284 281 288 287 286
60 61 62 61 61 62 62 61 61 64 64 62 61 62 58 52 45 45 39 16 347 335 328 317 298 294 295 291 290 286 285 283 280 285 287 290 292 290 288 284 285 286 284
58 58 60 61 59 58 57 56 56 58 55 53 52 49 43 33 15 4 3 346 328 321 314 306 301 303 308 303 293 286 281 282 277 276 281 285 291 292 287 285 285 283 283
57 57 57 59 58 56 55 52 51 52 49 44 38 33 28 18 2 353 338 329 314 310 306 299 296 290 296 300 297 297 294 289 287 282 280 282 285 287 284 281 282 281 280
52 53 55 55 55 54 52 50 49 49 49 45 37 29 21 10 2 353 338 327 318 315 309 302 299 294 294 295 297 298 296 291 289 288 287 286 284 284 285 283 282 280 279
46 47 47 48 47 47 47 47 48 46 45 42 35 26 17 4 355 346 335 330 320 316 313 306 296 298 299 299 297 296 295 295 292 292 290 290 287 284 284 283 281 279 276
41 42 42 42 41 42 43 43 41 39 37 33 28 21 13 3 354 348 338 329 320 314 309 306 298 297 297 299 299 300 299 298 296 293 289 289 290 289 288 285 282 280 280
35 36 38 37 36 36 36 37 36 33 31 28 23 20 15 9 0 350 344 333 324 318 312 308 302 298 295 296 298 300 301 300 297 294 292 288 289 291 291 287 282 284 284
28 30 31 31 31 30 29 29 29 27 25 23 20 18 15 11 5 355 346 340 331 325 317 311 309 304 299 296 299 301 301 301 300 297 294 292 291 291 293 290 286 287 286